Location: Johnson City
(36.3130°N, 82.3540°W)
Time: 22:34:04
(UTC-04:00)

Envisat - Visible Passes

Search period start: 24 July 2017 00:00
Search period end: 03 August 2017 00:00
Orbit: 764 x 766 km, 98.2° (Epoch: 24 July)

Date Brightness Start Highest point End Pass type
(mag) Time Alt. Az. Time Alt. Az. Time Alt. Az.
24 Jul 5.3 22:32:58 10° SW 22:36:40 20° W 22:40:23 10° NW visible
25 Jul 3.9 21:54:54 10° S 21:59:46 47° W 22:04:40 10° NNW visible
26 Jul 3.0 21:18:00 10° SSE 21:23:03 74° ENE 21:28:07 10° N visible
26 Jul 5.8 23:01:35 10° W 23:02:32 10° W 23:03:29 10° W visible
27 Jul 4.9 22:21:19 10° SSW 22:25:30 26° W 22:29:43 10° NW visible
28 Jul 3.5 21:43:39 10° S 21:48:39 61° W 21:53:41 10° NNW visible
29 Jul 3.2 21:07:02 10° SSE 21:12:00 57° ENE 21:16:58 10° N visible
29 Jul 5.6 22:48:43 10° WSW 22:51:20 14° W 22:53:57 10° WNW visible
30 Jul 4.5 22:09:49 10° SSW 22:14:21 33° W 22:18:55 10° NNW visible
31 Jul 3.1 21:32:29 10° S 21:37:34 79° WSW 21:42:39 10° NNW visible
01 Aug 3.4 20:56:10 10° SE 21:00:57 44° ENE 21:05:46 10° N visible
01 Aug 5.4 22:36:42 10° SW 22:40:08 18° W 22:43:36 10° NW visible
02 Aug 4.1 21:58:26 10° S 22:03:13 42° W 22:08:02 10° NNW visible
